Weather History for KMCB - February, 2013

Change the Weather History Date:

Monday, February 4, 2013

  Actual Average Record
Temperature  
Mean Temperature 49 °F -  
Max Temperature 57 °F 59 °F 82 °F (1957)
Min Temperature 41 °F 36 °F 16 °F (1970)
Degree Days  
Heating Degree Days 16    
Moisture  
Dew Point 41 °F    
Average Humidity 70    
Maximum Humidity 89    
Minimum Humidity 53    
Precipitation  
Precipitation 0.00 in - - ()
Sea Level Pressure  
Sea Level Pressure 30.03 in    
Wind  
Wind Speed 2 mph (SE)    
Max Wind Speed 6 mph    
Max Gust Speed -    
Visibility 10 miles    
Events      
Averages and records for this station are not official NWS values.
T = Trace of Precipitation, MM = Missing Value Source: NWS Daily Summary

Daily Weather History Graph

Daily Weather History Graph

Search for Another Location

Airport or City:

Trip Planner

Search our weather history database for the weather conditions in past years. The results will help you decide how hot, cold, wet, or windy it might be!

Date:

Astronomy

Feb. 04, 2013 Rise Set
Actual Time 6:51 AM CST 5:40 PM CST
Civil Twilight 6:26 AM CST 6:05 PM CST
Nautical Twilight 5:57 AM CST 6:34 PM CST
Astronomical Twilight 5:29 AM CST 7:02 PM CST
Moon 1:23 AM CST (2/4) 12:09 PM CST (2/4)
Length of Visible Light 11h 38m
Length of Day
10h 48m
Last Quarter, 37% of the Moon is Illuminated
Feb 4
Last Quarter
Feb 10
New
Feb 17
First Quarter
Feb 25
Full
Mar 4
Last Quarter

Hourly Weather History & Observations

Time (CST) Temp. Dew Point Humidity Pressure Visibility Wind Dir Wind Speed Gust Speed Precip Events Conditions
12:53 AM 41.0 °F 36.0 °F 82% 30.10 in 10.0 mi Calm Calm - N/A   Clear
1:53 AM 42.1 °F 37.0 °F 82% 30.09 in 10.0 mi Calm Calm - N/A   Clear
2:53 AM 42.1 °F 37.0 °F 82% 30.09 in 10.0 mi Calm Calm - N/A   Clear
4:53 AM 42.1 °F 36.0 °F 79% 30.07 in 10.0 mi Calm Calm - N/A   Clear
5:53 AM 45.0 °F 33.1 °F 63% 30.07 in 10.0 mi Calm Calm - N/A   Clear
6:53 AM 46.0 °F 32.0 °F 58% 30.09 in 10.0 mi Calm Calm - N/A   Clear
7:53 AM 46.0 °F 33.1 °F 61% 30.09 in 10.0 mi Calm Calm - N/A   Clear
8:53 AM 46.9 °F 34.0 °F 61% 30.10 in 10.0 mi Calm Calm - N/A   Clear
9:53 AM 48.9 °F 34.0 °F 56% 30.10 in 10.0 mi Variable 3.5 mph - N/A   Clear
10:53 AM 52.0 °F 35.1 °F 53% 30.09 in 10.0 mi SE 3.5 mph - N/A   Clear
11:53 AM 54.0 °F 37.9 °F 55% 30.07 in 10.0 mi SE 4.6 mph - N/A   Clear
12:53 PM 55.9 °F 39.9 °F 55% 30.04 in 10.0 mi SSE 4.6 mph - N/A   Clear
1:53 PM 57.0 °F 42.1 °F 57% 30.02 in 10.0 mi SSE 4.6 mph - N/A   Partly Cloudy
2:53 PM 57.0 °F 43.0 °F 59% 29.99 in 10.0 mi SSE 4.6 mph - N/A   Mostly Cloudy
3:53 PM 55.9 °F 44.1 °F 64% 29.98 in 10.0 mi SSE 5.8 mph - N/A   Overcast
4:53 PM 55.9 °F 45.0 °F 67% 29.95 in 10.0 mi Calm Calm - N/A   Overcast
5:53 PM 54.0 °F 45.0 °F 72% 29.97 in 10.0 mi Calm Calm - N/A   Overcast
6:53 PM 54.0 °F 46.0 °F 75% 29.96 in 10.0 mi Calm Calm - N/A   Overcast
7:53 PM 54.0 °F 46.9 °F 77% 29.98 in 10.0 mi SE 5.8 mph - N/A   Overcast
8:53 PM 54.0 °F 48.0 °F 80% 29.98 in 10.0 mi SSE 5.8 mph - N/A   Overcast
9:29 PM 53.6 °F 48.2 °F 82% 29.98 in 10.0 mi SSE 5.8 mph - N/A   Overcast
9:53 PM 53.1 °F 48.9 °F 86% 29.98 in 10.0 mi SE 4.6 mph - N/A   Overcast
10:53 PM 53.1 °F 48.9 °F 86% 29.97 in 10.0 mi SSE 4.6 mph - N/A   Overcast
11:53 PM 53.1 °F 50.0 °F 89% 29.96 in 10.0 mi SSE 3.5 mph - N/A   Overcast